Time,TemperatureF,DewpointF,PressureIn,WindDirection,WindDirectionDegrees,WindSpeedMPH,WindSpeedGustMPH,Humidity,HourlyPrecipIn,Conditions,Clouds,dailyrainin,SoftwareType,DateUTC
2013-06-09 00:02:00,66.0,57.9,29.92,SE,136,0.0,0.0,75,0.00,,BKN250,0.00,VWS V14.01,2013-06-09 05:02:00,
2013-06-09 00:07:00,66.1,58.0,29.92,South,171,0.0,2.0,75,0.00,,BKN250,0.00,VWS V14.01,2013-06-09 05:07:00,
2013-06-09 00:12:00,66.3,57.8,29.93,South,171,0.0,0.0,74,0.00,,BKN250,0.00,VWS V14.01,2013-06-09 05:12:00,
2013-06-09 00:17:00,66.4,57.9,29.92,South,171,0.0,0.0,74,0.00,,BKN250,0.00,VWS V14.01,2013-06-09 05:17:00,
2013-06-09 00:23:00,66.6,58.1,29.92,South,171,0.0,1.0,74,0.00,,BKN250,0.00,VWS V14.01,2013-06-09 05:23:00,
2013-06-09 00:28:00,66.6,57.7,29.92,South,171,0.0,2.0,73,0.00,,BKN250,0.00,VWS V14.01,2013-06-09 05:28:00,
2013-06-09 00:33:00,66.7,58.2,29.91,South,171,0.0,2.0,74,0.00,,BKN250,0.00,VWS V14.01,2013-06-09 05:33:00,
2013-06-09 00:38:00,66.7,58.2,29.91,South,171,0.0,0.0,74,0.00,,BKN250,0.00,VWS V14.01,2013-06-09 05:38:00,
2013-06-09 00:43:00,66.6,58.1,29.92,South,171,0.0,0.0,74,0.00,,BKN250,0.00,VWS V14.01,2013-06-09 05:43:00,
2013-06-09 00:48:00,66.4,57.9,29.91,South,171,0.0,0.0,74,0.00,,BKN250,0.00,VWS V14.01,2013-06-09 05:48:00,
2013-06-09 00:53:00,66.3,57.4,29.91,South,171,0.0,0.0,73,0.00,,BKN250,0.00,VWS V14.01,2013-06-09 05:53:00,
2013-06-09 00:58:00,66.3,57.4,29.92,South,171,0.0,1.0,73,0.00,,BKN250,0.00,VWS V14.01,2013-06-09 05:58:00,
2013-06-09 01:03:00,66.3,57.0,29.92,South,171,0.0,1.0,72,0.00,,BKN250,0.00,VWS V14.01,2013-06-09 06:03:00,
2013-06-09 01:08:00,66.3,57.0,29.92,South,171,0.0,1.0,72,0.00,,BKN250,0.00,VWS V14.01,2013-06-09 06:08:00,
2013-06-09 01:13:00,66.4,57.1,29.92,South,171,0.0,0.0,72,0.00,,BKN250,0.00,VWS V14.01,2013-06-09 06:13:00,
2013-06-09 01:18:00,66.4,57.5,29.92,South,171,0.0,0.0,73,0.00,,BKN250,0.00,VWS V14.01,2013-06-09 06:18:00,
2013-06-09 01:23:00,66.6,57.7,29.92,South,171,0.0,0.0,73,0.00,,BKN250,0.00,VWS V14.01,2013-06-09 06:23:00,
2013-06-09 01:29:00,66.4,57.1,29.92,South,171,0.0,0.0,72,0.00,,BKN250,0.00,VWS V14.01,2013-06-09 06:29:00,
2013-06-09 01:34:00,66.3,57.8,29.91,South,171,0.0,0.0,74,0.00,,BKN250,0.00,VWS V14.01,2013-06-09 06:34:00,
2013-06-09 01:39:00,66.0,57.5,29.91,South,171,0.0,0.0,74,0.00,,BKN250,0.00,VWS V14.01,2013-06-09 06:39:00,
2013-06-09 01:44:00,65.7,57.6,29.91,South,171,0.0,0.0,75,0.00,,BKN250,0.00,VWS V14.01,2013-06-09 06:44:00,
2013-06-09 01:49:00,65.5,57.4,29.91,South,171,0.0,0.0,75,0.00,,BKN250,0.00,VWS V14.01,2013-06-09 06:49:00,
2013-06-09 01:54:00,65.3,57.2,29.91,South,171,0.0,0.0,75,0.00,,BKN250,0.00,VWS V14.01,2013-06-09 06:54:00,
2013-06-09 01:59:00,65.3,57.2,29.91,South,171,0.0,0.0,75,0.00,,BKN250,0.00,VWS V14.01,2013-06-09 06:59:00,
2013-06-09 02:04:00,65.4,57.3,29.91,South,171,0.0,1.0,75,0.00,,BKN250,0.00,VWS V14.01,2013-06-09 07:04:00,
2013-06-09 02:09:00,65.7,57.2,29.91,South,171,0.0,1.0,74,0.00,,BKN250,0.00,VWS V14.01,2013-06-09 07:09:00,
2013-06-09 02:15:00,65.8,57.3,29.91,South,171,0.0,0.0,74,0.00,,BKN250,0.00,VWS V14.01,2013-06-09 07:15:00,
2013-06-09 02:19:00,65.9,57.4,29.91,South,171,0.0,1.0,74,0.00,,BKN250,0.00,VWS V14.01,2013-06-09 07:19:00,
2013-06-09 02:25:00,66.0,57.1,29.91,South,171,0.0,1.0,73,0.00,,BKN250,0.00,VWS V14.01,2013-06-09 07:25:00,
2013-06-09 02:30:00,66.1,57.6,29.90,South,171,0.0,1.0,74,0.00,,BKN250,0.00,VWS V14.01,2013-06-09 07:30:00,
2013-06-09 02:35:00,66.0,57.9,29.90,South,171,0.0,0.0,75,0.00,,BKN250,0.00,VWS V14.01,2013-06-09 07:35:00,
2013-06-09 02:40:00,65.8,57.7,29.89,South,171,0.0,0.0,75,0.00,,BKN250,0.00,VWS V14.01,2013-06-09 07:40:00,
2013-06-09 02:45:00,65.8,58.0,29.90,South,171,0.0,0.0,76,0.00,,BKN250,0.00,VWS V14.01,2013-06-09 07:45:00,
2013-06-09 02:50:00,65.6,57.5,29.89,South,171,0.0,2.0,75,0.00,,BKN250,0.00,VWS V14.01,2013-06-09 07:50:00,
2013-06-09 02:55:00,65.8,57.7,29.89,SSE,152,0.0,4.0,75,0.00,,BKN250,0.00,VWS V14.01,2013-06-09 07:55:00,
2013-06-09 03:00:00,66.0,57.9,29.88,SSE,154,1.0,3.0,75,0.00,,BKN250,0.00,VWS V14.01,2013-06-09 08:00:00,
2013-06-09 03:05:00,66.4,57.9,29.88,SE,145,0.0,5.0,74,0.00,,BKN250,0.00,VWS V14.01,2013-06-09 08:05:00,
2013-06-09 03:10:00,66.8,58.3,29.88,SSE,159,0.0,4.0,74,0.00,,BKN250,0.00,VWS V14.01,2013-06-09 08:10:00,
2013-06-09 03:15:00,67.1,58.5,29.88,SSE,165,0.0,5.0,74,0.00,,BKN250,0.00,VWS V14.01,2013-06-09 08:15:00,
2013-06-09 03:20:00,67.3,58.7,29.88,SSE,151,3.0,4.0,74,0.00,,BKN250,0.00,VWS V14.01,2013-06-09 08:20:00,
2013-06-09 03:25:00,67.4,58.5,29.87,SSE,150,2.0,7.0,73,0.00,,BKN250,0.00,VWS V14.01,2013-06-09 08:25:00,
2013-06-09 03:30:00,67.6,58.7,29.87,SSE,165,0.0,7.0,73,0.00,,BKN250,0.00,VWS V14.01,2013-06-09 08:30:00,
2013-06-09 03:36:00,67.8,58.8,29.87,SSE,148,1.0,7.0,73,0.00,,BKN250,0.00,VWS V14.01,2013-06-09 08:36:00,
2013-06-09 03:41:00,67.9,58.9,29.87,SSE,148,5.0,7.0,73,0.00,,BKN250,0.00,VWS V14.01,2013-06-09 08:41:00,
2013-06-09 03:46:00,67.9,58.9,29.87,SSW,194,0.0,7.0,73,0.00,,BKN250,0.00,VWS V14.01,2013-06-09 08:46:00,
2013-06-09 03:51:00,67.9,58.9,29.87,SSE,152,1.0,5.0,73,0.00,,BKN250,0.00,VWS V14.01,2013-06-09 08:51:00,
2013-06-09 03:56:00,68.1,59.1,29.87,SSE,158,1.0,5.0,73,0.00,,BKN250,0.00,VWS V14.01,2013-06-09 08:56:00,
2013-06-09 04:01:00,68.1,59.1,29.87,SSE,160,0.0,5.0,73,0.00,,BKN250,0.00,VWS V14.01,2013-06-09 09:01:00,
2013-06-09 04:06:00,68.1,59.1,29.87,SSE,161,0.0,1.0,73,0.00,,BKN250,0.00,VWS V14.01,2013-06-09 09:06:00,
2013-06-09 04:12:00,67.9,59.3,29.86,SSE,163,2.0,2.0,74,0.00,,BKN250,0.00,VWS V14.01,2013-06-09 09:12:00,
2013-06-09 04:17:00,67.8,59.2,29.86,SE,141,0.0,3.0,74,0.00,,BKN250,0.00,VWS V14.01,2013-06-09 09:17:00,
2013-06-09 04:22:00,67.8,59.2,29.86,South,170,0.0,3.0,74,0.00,,BKN250,0.00,VWS V14.01,2013-06-09 09:22:00,
2013-06-09 04:27:00,67.8,59.6,29.86,SSE,155,0.0,3.0,75,0.00,,BKN250,0.00,VWS V14.01,2013-06-09 09:27:00,
2013-06-09 04:32:00,67.6,59.4,29.86,SSE,167,2.0,4.0,75,0.00,,BKN250,0.00,VWS V14.01,2013-06-09 09:32:00,
2013-06-09 04:37:00,67.6,59.4,29.86,SE,144,1.0,4.0,75,0.00,,BKN250,0.00,VWS V14.01,2013-06-09 09:37:00,
2013-06-09 04:42:00,67.4,59.6,29.87,SSE,159,1.0,4.0,76,0.00,,BKN250,0.00,VWS V14.01,2013-06-09 09:42:00,
2013-06-09 04:47:00,67.4,59.6,29.87,SSE,153,0.0,4.0,76,0.00,,BKN250,0.00,VWS V14.01,2013-06-09 09:47:00,
2013-06-09 04:52:00,67.4,59.6,29.87,SSE,153,0.0,3.0,76,0.00,,BKN250,0.00,VWS V14.01,2013-06-09 09:52:00,
2013-06-09 04:57:00,67.5,60.0,29.88,SSE,153,0.0,1.0,77,0.00,,BKN250,0.00,VWS V14.01,2013-06-09 09:57:00,
2013-06-09 05:02:00,67.5,59.7,29.88,SSE,153,0.0,1.0,76,0.00,,BKN250,0.00,VWS V14.01,2013-06-09 10:02:00,
2013-06-09 05:07:00,67.4,60.0,29.88,SSE,153,0.0,0.0,77,0.00,,BKN250,0.00,VWS V14.01,2013-06-09 10:07:00,
2013-06-09 05:12:00,67.4,60.0,29.88,SSE,153,0.0,0.0,77,0.00,,BKN250,0.00,VWS V14.01,2013-06-09 10:12:00,
2013-06-09 05:17:00,67.4,60.3,29.87,SSE,154,0.0,1.0,78,0.00,,BKN250,0.00,VWS V14.01,2013-06-09 10:17:00,
2013-06-09 05:22:00,67.4,60.3,29.88,SSE,153,0.0,2.0,78,0.00,,BKN250,0.00,VWS V14.01,2013-06-09 10:22:00,
2013-06-09 05:27:00,67.6,60.5,29.88,SSE,153,0.0,2.0,78,0.00,,BKN250,0.00,VWS V14.01,2013-06-09 10:27:00,
2013-06-09 05:32:00,67.6,60.5,29.87,SSE,154,0.0,3.0,78,0.00,,BKN250,0.00,VWS V14.01,2013-06-09 10:32:00,
2013-06-09 05:37:00,67.8,60.7,29.87,SSE,160,0.0,3.0,78,0.00,,BKN250,0.00,VWS V14.01,2013-06-09 10:37:00,
2013-06-09 05:43:00,67.9,61.2,29.87,SE,141,0.0,5.0,79,0.00,,BKN250,0.00,VWS V14.01,2013-06-09 10:43:00,
2013-06-09 05:48:00,68.1,61.3,29.87,SSE,166,4.0,5.0,79,0.00,,BKN250,0.00,VWS V14.01,2013-06-09 10:48:00,
2013-06-09 05:53:00,68.3,61.5,29.88,SSE,167,3.0,4.0,79,0.00,,BKN250,0.00,VWS V14.01,2013-06-09 10:53:00,
2013-06-09 05:58:00,68.6,61.8,29.88,SSE,153,1.0,7.0,79,0.00,,BKN250,0.00,VWS V14.01,2013-06-09 10:58:00,
2013-06-09 06:03:00,68.4,61.3,29.88,South,180,2.0,7.0,78,0.00,,,0.00,VWS V14.01,2013-06-09 11:03:00,
2013-06-09 06:08:00,68.7,61.6,29.88,South,176,2.0,5.0,78,0.00,,,0.00,VWS V14.01,2013-06-09 11:08:00,
2013-06-09 06:13:00,68.7,61.9,29.87,SSE,148,0.0,4.0,79,0.00,,,0.00,VWS V14.01,2013-06-09 11:13:00,
2013-06-09 06:18:00,68.6,61.5,29.87,SSE,151,0.0,4.0,78,0.00,,,0.00,VWS V14.01,2013-06-09 11:18:00,
2013-06-09 06:23:00,68.4,62.0,29.87,SE,138,2.0,5.0,80,0.00,,,0.00,VWS V14.01,2013-06-09 11:23:00,
2013-06-09 06:29:00,68.2,61.8,29.87,SSE,150,2.0,5.0,80,0.00,,,0.00,VWS V14.01,2013-06-09 11:29:00,
2013-06-09 06:34:00,68.3,62.2,29.87,SSE,155,3.0,5.0,81,0.00,,,0.00,VWS V14.01,2013-06-09 11:34:00,
2013-06-09 06:39:00,68.1,62.1,29.87,SSE,156,0.0,5.0,81,0.00,,,0.00,VWS V14.01,2013-06-09 11:39:00,
2013-06-09 06:44:00,68.1,62.1,29.87,SSE,150,2.0,5.0,81,0.00,,,0.00,VWS V14.01,2013-06-09 11:44:00,
2013-06-09 06:49:00,68.1,62.1,29.87,SSE,164,2.0,5.0,81,0.00,,,0.00,VWS V14.01,2013-06-09 11:49:00,
2013-06-09 06:54:00,68.1,62.4,29.87,SSE,160,6.0,6.0,82,0.00,,,0.00,VWS V14.01,2013-06-09 11:54:00,
2013-06-09 06:59:00,68.1,62.1,29.87,SE,143,3.0,7.0,81,0.00,,,0.00,VWS V14.01,2013-06-09 11:59:00,
2013-06-09 07:04:00,68.3,62.6,29.87,SSE,161,1.0,6.0,82,0.00,,,0.00,VWS V14.01,2013-06-09 12:04:00,
2013-06-09 07:09:00,68.3,62.6,29.87,SE,145,0.0,4.0,82,0.00,,,0.00,VWS V14.01,2013-06-09 12:09:00,
2013-06-09 07:14:00,68.3,62.9,29.87,SSE,152,0.0,5.0,83,0.00,,,0.00,VWS V14.01,2013-06-09 12:14:00,
2013-06-09 07:19:00,68.1,63.1,29.86,SSE,149,0.0,5.0,84,0.00,,,0.00,VWS V14.01,2013-06-09 12:19:00,
2013-06-09 07:24:00,67.8,63.1,29.87,SSE,152,1.0,4.0,85,0.00,,,0.00,VWS V14.01,2013-06-09 12:24:00,
2013-06-09 07:29:00,67.8,63.5,29.87,SSE,150,1.0,4.0,86,0.00,,,0.00,VWS V14.01,2013-06-09 12:29:00,
2013-06-09 07:34:00,67.6,63.3,29.87,South,183,0.0,4.0,86,0.00,,BKN090,0.00,VWS V14.01,2013-06-09 12:34:00,
2013-06-09 07:40:00,67.6,63.3,29.86,SSE,168,0.0,5.0,86,0.00,,BKN090,0.00,VWS V14.01,2013-06-09 12:40:00,
2013-06-09 07:45:00,67.6,63.3,29.87,SE,146,0.0,7.0,86,0.00,,BKN090,0.00,VWS V14.01,2013-06-09 12:45:00,
2013-06-09 07:50:00,67.8,63.5,29.87,SE,145,3.0,5.0,86,0.00,,BKN090,0.00,VWS V14.01,2013-06-09 12:50:00,
2013-06-09 07:55:00,67.9,63.2,29.86,SSE,153,0.0,5.0,85,0.00,,BKN090,0.00,VWS V14.01,2013-06-09 12:55:00,
2013-06-09 08:00:00,68.1,63.8,29.87,SSE,161,1.0,5.0,86,0.00,,BKN090,0.00,VWS V14.01,2013-06-09 13:00:00,
2013-06-09 08:05:00,68.2,63.5,29.87,South,175,3.0,5.0,85,0.00,,BKN090,0.00,VWS V14.01,2013-06-09 13:05:00,
2013-06-09 08:10:00,68.2,63.5,29.87,South,176,0.0,3.0,85,0.00,,BKN090,0.00,VWS V14.01,2013-06-09 13:10:00,
2013-06-09 08:15:00,68.3,63.6,29.88,SSE,160,0.0,5.0,85,0.00,,BKN090,0.00,VWS V14.01,2013-06-09 13:15:00,
2013-06-09 08:20:00,68.4,63.7,29.88,SSE,154,5.0,5.0,85,0.00,,BKN090,0.00,VWS V14.01,2013-06-09 13:20:00,
2013-06-09 08:25:00,68.6,63.9,29.88,South,175,3.0,5.0,85,0.00,,BKN090,0.00,VWS V14.01,2013-06-09 13:25:00,
2013-06-09 08:30:00,68.6,63.9,29.88,South,171,3.0,7.0,85,0.00,,BKN090,0.00,VWS V14.01,2013-06-09 13:30:00,
2013-06-09 08:35:00,68.9,64.2,29.87,South,169,0.0,5.0,85,0.00,,BKN090,0.00,VWS V14.01,2013-06-09 13:35:00,
2013-06-09 08:40:00,69.3,64.3,29.88,South,179,0.0,5.0,84,0.00,,BKN090,0.00,VWS V14.01,2013-06-09 13:40:00,
2013-06-09 08:45:00,69.4,64.4,29.87,South,183,0.0,4.0,84,0.00,,SCT100,0.00,VWS V14.01,2013-06-09 13:45:00,
2013-06-09 08:50:00,69.7,64.3,29.87,South,184,0.0,5.0,83,0.00,,SCT100,0.00,VWS V14.01,2013-06-09 13:50:00,
2013-06-09 08:55:00,70.0,63.9,29.88,WSW,248,5.0,8.0,81,0.00,,SCT100,0.00,VWS V14.01,2013-06-09 13:55:00,
2013-06-09 09:00:00,70.5,64.4,29.88,WSW,239,3.0,5.0,81,0.00,,SCT100,0.00,VWS V14.01,2013-06-09 14:00:00,
2013-06-09 09:05:00,71.2,64.4,29.88,South,179,4.0,8.0,79,0.00,,SCT100,0.00,VWS V14.01,2013-06-09 14:05:00,
2013-06-09 09:11:00,71.6,64.8,29.88,WSW,253,8.0,12.0,79,0.00,,SCT100,0.00,VWS V14.01,2013-06-09 14:11:00,
2013-06-09 09:16:00,72.1,64.5,29.88,SSW,205,2.0,11.0,77,0.00,,SCT100,0.00,VWS V14.01,2013-06-09 14:16:00,
2013-06-09 09:21:00,72.1,64.5,29.89,South,180,8.0,14.0,77,0.00,,SCT100,0.00,VWS V14.01,2013-06-09 14:21:00,
2013-06-09 09:26:00,71.9,64.3,29.89,SSE,163,2.0,11.0,77,0.00,,SCT100,0.00,VWS V14.01,2013-06-09 14:26:00,
2013-06-09 09:31:00,71.6,64.0,29.88,WSW,245,1.0,6.0,77,0.00,,SCT100,0.00,VWS V14.01,2013-06-09 14:31:00,
2013-06-09 09:36:00,71.5,64.3,29.89,South,170,4.0,7.0,78,0.00,,SCT100,0.00,VWS V14.01,2013-06-09 14:36:00,
2013-06-09 09:41:00,71.7,64.1,29.89,WSW,251,7.0,10.0,77,0.00,,SCT100,0.00,VWS V14.01,2013-06-09 14:41:00,
2013-06-09 09:46:00,71.7,64.1,29.88,SW,226,9.0,11.0,77,0.00,,SCT100,0.00,VWS V14.01,2013-06-09 14:46:00,
2013-06-09 09:51:00,71.9,63.5,29.89,SW,234,2.0,9.0,75,0.00,,SCT100,0.00,VWS V14.01,2013-06-09 14:51:00,
2013-06-09 09:56:00,72.6,64.2,29.88,SW,234,3.0,10.0,75,0.00,,SCT100,0.00,VWS V14.01,2013-06-09 14:56:00,
2013-06-09 10:01:00,72.9,63.8,29.89,South,171,5.0,9.0,73,0.00,,SCT040,0.00,VWS V14.01,2013-06-09 15:01:00,
2013-06-09 10:06:00,72.7,63.5,29.89,SW,236,1.0,7.0,73,0.00,,SCT040,0.00,VWS V14.01,2013-06-09 15:06:00,
2013-06-09 10:12:00,72.4,63.3,29.89,WSW,250,0.0,6.0,73,0.00,,SCT040,0.00,VWS V14.01,2013-06-09 15:12:00,
2013-06-09 10:17:00,72.2,63.5,29.89,South,180,1.0,5.0,74,0.00,,SCT040,0.00,VWS V14.01,2013-06-09 15:17:00,
2013-06-09 10:22:00,72.2,63.5,29.89,West,266,3.0,7.0,74,0.00,,SCT040,0.00,VWS V14.01,2013-06-09 15:22:00,
2013-06-09 10:27:00,72.4,63.7,29.89,South,177,0.0,7.0,74,0.00,,SCT040,0.00,VWS V14.01,2013-06-09 15:27:00,
2013-06-09 10:32:00,72.9,63.8,29.89,WSW,256,4.0,8.0,73,0.00,,SCT040,0.00,VWS V14.01,2013-06-09 15:32:00,
2013-06-09 10:37:00,73.1,63.5,29.89,WSW,239,3.0,7.0,72,0.00,,SCT040,0.00,VWS V14.01,2013-06-09 15:37:00,
2013-06-09 10:42:00,73.4,64.2,29.89,WSW,239,0.0,8.0,73,0.00,,SCT040,0.00,VWS V14.01,2013-06-09 15:42:00,
2013-06-09 10:47:00,73.7,63.7,29.89,SW,234,2.0,8.0,71,0.00,,SCT040,0.00,VWS V14.01,2013-06-09 15:47:00,
2013-06-09 10:53:00,73.7,62.9,29.89,WSW,246,0.0,5.0,69,0.00,,SCT040,0.00,VWS V14.01,2013-06-09 15:53:00,
2013-06-09 10:58:00,74.2,64.2,29.89,WSW,242,1.0,2.0,71,0.00,,SCT040,0.00,VWS V14.01,2013-06-09 15:58:00,
2013-06-09 11:03:00,74.7,63.5,29.90,WSW,243,0.0,5.0,68,0.00,,BKN150,0.00,VWS V14.01,2013-06-09 16:03:00,
2013-06-09 11:08:00,75.1,63.8,29.90,WNW,285,0.0,4.0,68,0.00,,BKN150,0.00,VWS V14.01,2013-06-09 16:08:00,
2013-06-09 11:13:00,75.6,63.0,29.90,SW,217,4.0,7.0,65,0.00,,BKN150,0.00,VWS V14.01,2013-06-09 16:13:00,
2013-06-09 11:18:00,75.3,62.3,29.90,WSW,254,0.0,7.0,64,0.00,,BKN150,0.00,VWS V14.01,2013-06-09 16:18:00,
2013-06-09 11:23:00,75.3,62.3,29.90,WSW,257,0.0,4.0,64,0.00,,BKN150,0.00,VWS V14.01,2013-06-09 16:23:00,
2013-06-09 11:28:00,75.1,62.5,29.90,West,275,3.0,5.0,65,0.00,,BKN150,0.00,VWS V14.01,2013-06-09 16:28:00,
2013-06-09 11:33:00,74.6,63.3,29.90,West,269,3.0,8.0,68,0.00,,BKN150,0.00,VWS V14.01,2013-06-09 16:33:00,
2013-06-09 11:38:00,74.6,63.8,29.91,WSW,246,1.0,7.0,69,0.00,,BKN150,0.00,VWS V14.01,2013-06-09 16:38:00,
2013-06-09 11:43:00,74.9,63.6,29.91,SW,227,4.0,7.0,68,0.00,,BKN150,0.00,VWS V14.01,2013-06-09 16:43:00,
2013-06-09 11:48:00,75.0,62.9,29.91,WSW,252,6.0,7.0,66,0.00,,BKN044,0.00,VWS V14.01,2013-06-09 16:48:00,
2013-06-09 11:53:00,75.1,63.8,29.91,WSW,257,4.0,6.0,68,0.00,,BKN044,0.00,VWS V14.01,2013-06-09 16:53:00,
2013-06-09 11:58:00,76.1,63.9,29.90,WNW,289,3.0,7.0,66,0.00,,BKN044,0.00,VWS V14.01,2013-06-09 16:58:00,
2013-06-09 12:04:00,76.3,62.8,29.90,West,266,5.0,8.0,63,0.00,,BKN044,0.00,VWS V14.01,2013-06-09 17:04:00,
2013-06-09 12:09:00,76.3,63.2,29.90,WSW,257,7.0,8.0,64,0.00,,BKN044,0.00,VWS V14.01,2013-06-09 17:09:00,
2013-06-09 12:14:00,76.3,62.8,29.91,WSW,245,3.0,8.0,63,0.00,,BKN044,0.00,VWS V14.01,2013-06-09 17:14:00,
2013-06-09 12:19:00,76.7,63.2,29.91,West,272,3.0,6.0,63,0.00,,BKN044,0.00,VWS V14.01,2013-06-09 17:19:00,
2013-06-09 12:24:00,76.9,63.4,29.91,WSW,252,3.0,5.0,63,0.00,,BKN044,0.00,VWS V14.01,2013-06-09 17:24:00,
2013-06-09 12:29:00,76.7,64.1,29.91,WNW,302,3.0,7.0,65,0.00,,BKN044,0.00,VWS V14.01,2013-06-09 17:29:00,
2013-06-09 12:34:00,76.5,63.4,29.91,West,260,3.0,6.0,64,0.00,,BKN044,0.00,VWS V14.01,2013-06-09 17:34:00,
2013-06-09 12:39:00,76.7,63.6,29.91,WSW,242,2.0,7.0,64,0.00,,BKN044,0.00,VWS V14.01,2013-06-09 17:39:00,
2013-06-09 12:44:00,76.9,64.7,29.91,WSW,258,3.0,7.0,66,0.00,,BKN044,0.00,VWS V14.01,2013-06-09 17:44:00,
2013-06-09 12:49:00,76.8,62.8,29.91,WNW,283,0.0,5.0,62,0.00,,BKN044,0.00,VWS V14.01,2013-06-09 17:49:00,
2013-06-09 12:54:00,77.0,62.1,29.91,West,259,4.0,7.0,60,0.00,,BKN044,0.00,VWS V14.01,2013-06-09 17:54:00,
2013-06-09 12:59:00,77.6,63.1,29.90,WSW,248,3.0,7.0,61,0.00,,BKN044,0.00,VWS V14.01,2013-06-09 17:59:00,
2013-06-09 13:04:00,77.8,62.8,29.91,West,261,3.0,9.0,60,0.00,,OVC046,0.00,VWS V14.01,2013-06-09 18:04:00,
2013-06-09 13:09:00,77.7,62.2,29.90,West,263,5.0,9.0,59,0.00,,OVC046,0.00,VWS V14.01,2013-06-09 18:09:00,
2013-06-09 13:14:00,77.7,61.8,29.90,WNW,294,3.0,9.0,58,0.00,,OVC046,0.00,VWS V14.01,2013-06-09 18:14:00,
2013-06-09 13:19:00,77.9,62.4,29.90,West,262,7.0,12.0,59,0.00,,OVC046,0.00,VWS V14.01,2013-06-09 18:19:00,
2013-06-09 13:25:00,78.3,62.3,29.90,WSW,245,5.0,12.0,58,0.00,,OVC046,0.00,VWS V14.01,2013-06-09 18:25:00,
2013-06-09 13:30:00,78.5,62.5,29.90,NW,326,0.0,10.0,58,0.00,,OVC046,0.00,VWS V14.01,2013-06-09 18:30:00,
2013-06-09 13:35:00,78.7,62.7,29.90,WSW,258,4.0,10.0,58,0.00,,OVC046,0.00,VWS V14.01,2013-06-09 18:35:00,
2013-06-09 13:40:00,78.3,62.3,29.90,West,273,1.0,10.0,58,0.00,,OVC046,0.00,VWS V14.01,2013-06-09 18:40:00,
2013-06-09 13:45:00,78.1,62.1,29.89,West,267,4.0,10.0,58,0.00,,OVC046,0.00,VWS V14.01,2013-06-09 18:45:00,
2013-06-09 13:50:00,78.7,62.2,29.89,NW,309,3.0,9.0,57,0.00,,OVC046,0.00,VWS V14.01,2013-06-09 18:50:00,
2013-06-09 13:55:00,78.7,62.2,29.89,West,267,3.0,12.0,57,0.00,,OVC046,0.00,VWS V14.01,2013-06-09 18:55:00,
2013-06-09 14:00:00,78.5,62.5,29.89,West,267,0.0,9.0,58,0.00,,OVC046,0.00,VWS V14.01,2013-06-09 19:00:00,
2013-06-09 14:05:00,78.5,61.0,29.89,NNE,22,1.0,8.0,55,0.00,,BKN044,0.00,VWS V14.01,2013-06-09 19:05:00,
2013-06-09 14:10:00,78.7,62.2,29.89,West,262,7.0,11.0,57,0.00,,BKN044,0.00,VWS V14.01,2013-06-09 19:10:00,
2013-06-09 14:15:00,78.7,62.2,29.89,WSW,258,5.0,12.0,57,0.00,,BKN044,0.00,VWS V14.01,2013-06-09 19:15:00,
2013-06-09 14:20:00,78.5,62.0,29.89,West,263,5.0,10.0,57,0.00,,BKN044,0.00,VWS V14.01,2013-06-09 19:20:00,
2013-06-09 14:25:00,79.0,60.4,29.89,West,261,3.0,11.0,53,0.00,,BKN044,0.00,VWS V14.01,2013-06-09 19:25:00,
2013-06-09 14:30:00,79.4,60.8,29.89,WSW,254,2.0,10.0,53,0.00,,BKN044,0.00,VWS V14.01,2013-06-09 19:30:00,
2013-06-09 14:35:00,79.6,59.9,29.88,West,276,0.0,9.0,51,0.00,,BKN044,0.00,VWS V14.01,2013-06-09 19:35:00,
2013-06-09 14:40:00,79.7,59.4,29.88,West,263,5.0,11.0,50,0.00,,BKN044,0.00,VWS V14.01,2013-06-09 19:40:00,
2013-06-09 14:45:00,79.7,59.4,29.89,West,279,4.0,9.0,50,0.00,,BKN041,0.00,VWS V14.01,2013-06-09 19:45:00,
2013-06-09 14:50:00,79.6,58.2,29.88,North,1,3.0,7.0,48,0.00,,BKN041,0.00,VWS V14.01,2013-06-09 19:50:00,
2013-06-09 14:56:00,79.7,60.5,29.89,WSW,257,10.0,12.0,52,0.00,,BKN041,0.00,VWS V14.01,2013-06-09 19:56:00,
2013-06-09 15:01:00,79.7,59.4,29.88,WSW,257,5.0,12.0,50,0.00,,BKN041,0.00,VWS V14.01,2013-06-09 20:01:00,
2013-06-09 15:06:00,79.6,59.3,29.88,West,269,2.0,7.0,50,0.00,,BKN041,0.00,VWS V14.01,2013-06-09 20:06:00,
2013-06-09 15:11:00,80.1,58.7,29.88,NNW,343,2.0,7.0,48,0.00,,BKN041,0.00,VWS V14.01,2013-06-09 20:11:00,
2013-06-09 15:16:00,80.3,58.8,29.88,WNW,300,0.0,6.0,48,0.00,,BKN041,0.00,VWS V14.01,2013-06-09 20:16:00,
2013-06-09 15:21:00,80.5,58.4,29.88,West,260,4.0,5.0,47,0.00,,BKN041,0.00,VWS V14.01,2013-06-09 20:21:00,
2013-06-09 15:26:00,81.0,55.8,29.88,West,267,1.0,7.0,42,0.00,,BKN041,0.00,VWS V14.01,2013-06-09 20:26:00,
2013-06-09 15:31:00,81.0,57.1,29.88,West,276,0.0,9.0,44,0.00,,BKN041,0.00,VWS V14.01,2013-06-09 20:31:00,
2013-06-09 15:37:00,80.5,56.0,29.88,NNE,24,0.0,9.0,43,0.00,,BKN041,0.00,VWS V14.01,2013-06-09 20:37:00,
2013-06-09 15:42:00,80.5,57.8,29.87,North,356,0.0,5.0,46,0.00,,BKN041,0.00,VWS V14.01,2013-06-09 20:42:00,
2013-06-09 15:47:00,80.7,57.4,29.88,WSW,247,3.0,6.0,45,0.00,,BKN041,0.00,VWS V14.01,2013-06-09 20:47:00,
2013-06-09 15:52:00,80.7,56.2,29.88,SSW,209,2.0,11.0,43,0.00,,BKN041,0.00,VWS V14.01,2013-06-09 20:52:00,
2013-06-09 15:57:00,80.8,56.9,29.88,West,263,2.0,9.0,44,0.00,,BKN041,0.00,VWS V14.01,2013-06-09 20:57:00,
2013-06-09 16:02:00,80.9,57.0,29.88,NNW,337,3.0,9.0,44,0.00,,SCT044,0.00,VWS V14.01,2013-06-09 21:02:00,
2013-06-09 16:08:00,80.5,56.6,29.88,North,355,2.0,8.0,44,0.00,,SCT044,0.00,VWS V14.01,2013-06-09 21:08:00,
2013-06-09 16:13:00,80.5,56.6,29.87,North,8,1.0,9.0,44,0.00,,SCT044,0.00,VWS V14.01,2013-06-09 21:13:00,
2013-06-09 16:18:00,80.8,56.2,29.87,West,277,4.0,9.0,43,0.00,,SCT044,0.00,VWS V14.01,2013-06-09 21:18:00,
2013-06-09 16:23:00,80.5,56.6,29.87,NNW,345,2.0,9.0,44,0.00,,SCT044,0.00,VWS V14.01,2013-06-09 21:23:00,
2013-06-09 16:28:00,80.3,57.0,29.87,NNE,14,2.0,7.0,45,0.00,,SCT044,0.00,VWS V14.01,2013-06-09 21:28:00,
2013-06-09 16:33:00,80.5,57.2,29.87,North,2,2.0,5.0,45,0.00,,SCT044,0.00,VWS V14.01,2013-06-09 21:33:00,
2013-06-09 16:38:00,80.7,57.4,29.87,NNW,338,0.0,5.0,45,0.00,,SCT044,0.00,VWS V14.01,2013-06-09 21:38:00,
2013-06-09 16:43:00,81.0,56.4,29.87,WNW,303,4.0,6.0,43,0.00,,SCT044,0.00,VWS V14.01,2013-06-09 21:43:00,
2013-06-09 16:48:00,81.2,56.6,29.87,West,264,4.0,8.0,43,0.00,,SCT044,0.00,VWS V14.01,2013-06-09 21:48:00,
2013-06-09 16:53:00,81.2,56.6,29.87,North,8,0.0,9.0,43,0.00,,SCT044,0.00,VWS V14.01,2013-06-09 21:53:00,
2013-06-09 16:58:00,81.2,56.6,29.87,West,262,1.0,5.0,43,0.00,,SCT044,0.00,VWS V14.01,2013-06-09 21:58:00,
2013-06-09 17:03:00,81.0,56.4,29.87,West,264,0.0,5.0,43,0.00,,SCT055,0.00,VWS V14.01,2013-06-09 22:03:00,
2013-06-09 17:08:00,81.2,56.6,29.87,WSW,256,2.0,5.0,43,0.00,,SCT055,0.00,VWS V14.01,2013-06-09 22:08:00,
2013-06-09 17:13:00,81.4,56.8,29.86,NNW,344,1.0,7.0,43,0.00,,SCT055,0.00,VWS V14.01,2013-06-09 22:13:00,
2013-06-09 17:18:00,81.2,56.6,29.87,WNW,303,5.0,9.0,43,0.00,,SCT055,0.00,VWS V14.01,2013-06-09 22:18:00,
2013-06-09 17:23:00,81.2,57.2,29.86,NW,319,3.0,5.0,44,0.00,,SCT055,0.00,VWS V14.01,2013-06-09 22:23:00,
2013-06-09 17:28:00,81.2,56.6,29.87,WNW,296,0.0,7.0,43,0.00,,SCT055,0.00,VWS V14.01,2013-06-09 22:28:00,
2013-06-09 17:34:00,81.2,56.6,29.87,West,266,7.0,7.0,43,0.00,,SCT055,0.00,VWS V14.01,2013-06-09 22:34:00,
2013-06-09 17:39:00,81.2,56.6,29.86,SW,234,0.0,7.0,43,0.00,,SCT055,0.00,VWS V14.01,2013-06-09 22:39:00,
2013-06-09 17:44:00,81.2,56.6,29.87,West,277,0.0,5.0,43,0.00,,SCT055,0.00,VWS V14.01,2013-06-09 22:44:00,
2013-06-09 17:49:00,81.2,56.6,29.87,WSW,257,3.0,5.0,43,0.00,,SCT055,0.00,VWS V14.01,2013-06-09 22:49:00,
2013-06-09 17:54:00,81.2,55.3,29.87,West,268,6.0,6.0,41,0.00,,SCT055,0.00,VWS V14.01,2013-06-09 22:54:00,
2013-06-09 17:59:00,81.2,55.3,29.87,WSW,256,3.0,6.0,41,0.00,,SCT055,0.00,VWS V14.01,2013-06-09 22:59:00,
2013-06-09 18:04:00,81.2,56.6,29.87,West,277,2.0,5.0,43,0.00,,FEW050,0.00,VWS V14.01,2013-06-09 23:04:00,
2013-06-09 18:09:00,81.1,56.5,29.87,NNW,345,0.0,7.0,43,0.00,,FEW050,0.00,VWS V14.01,2013-06-09 23:09:00,
2013-06-09 18:14:00,81.0,56.4,29.87,West,259,2.0,7.0,43,0.00,,FEW050,0.00,VWS V14.01,2013-06-09 23:14:00,
2013-06-09 18:19:00,81.0,55.8,29.87,WSW,254,0.0,5.0,42,0.00,,FEW050,0.00,VWS V14.01,2013-06-09 23:19:00,
2013-06-09 18:24:00,81.0,56.4,29.87,WSW,246,3.0,5.0,43,0.00,,FEW050,0.00,VWS V14.01,2013-06-09 23:24:00,
2013-06-09 18:29:00,81.0,56.4,29.87,WSW,251,4.0,5.0,43,0.00,,FEW050,0.00,VWS V14.01,2013-06-09 23:29:00,
2013-06-09 18:35:00,80.8,56.2,29.87,West,279,0.0,5.0,43,0.00,,FEW050,0.00,VWS V14.01,2013-06-09 23:35:00,
2013-06-09 18:40:00,80.5,56.6,29.87,West,267,4.0,6.0,44,0.00,,FEW050,0.00,VWS V14.01,2013-06-09 23:40:00,
2013-06-09 18:45:00,80.3,56.4,29.87,West,259,4.0,6.0,44,0.00,,FEW050,0.00,VWS V14.01,2013-06-09 23:45:00,
2013-06-09 18:50:00,80.3,57.0,29.87,West,260,0.0,5.0,45,0.00,,FEW050,0.00,VWS V14.01,2013-06-09 23:50:00,
2013-06-09 18:55:00,80.5,57.8,29.87,North,7,0.0,4.0,46,0.00,,FEW050,0.00,VWS V14.01,2013-06-09 23:55:00,
2013-06-09 19:00:00,80.3,58.2,29.87,NW,311,0.0,3.0,47,0.00,,FEW050,0.00,VWS V14.01,2013-06-10 00:00:00,
2013-06-09 19:06:00,80.3,57.7,29.87,WSW,253,2.0,3.0,46,0.00,,FEW050,0.00,VWS V14.01,2013-06-10 00:06:00,
2013-06-09 19:11:00,79.9,57.3,29.87,WSW,256,3.0,5.0,46,0.00,,FEW050,0.00,VWS V14.01,2013-06-10 00:11:00,
2013-06-09 19:16:00,79.2,57.2,29.87,WNW,285,0.0,4.0,47,0.00,,FEW050,0.00,VWS V14.01,2013-06-10 00:16:00,
2013-06-09 19:21:00,79.0,57.7,29.86,SW,236,5.0,5.0,48,0.00,,FEW050,0.00,VWS V14.01,2013-06-10 00:21:00,
2013-06-09 19:26:00,79.0,57.1,29.87,WSW,257,2.0,5.0,47,0.00,,FEW050,0.00,VWS V14.01,2013-06-10 00:26:00,
2013-06-09 19:31:00,79.0,57.1,29.87,WNW,283,1.0,3.0,47,0.00,,SCT100,0.00,VWS V14.01,2013-06-10 00:31:00,
2013-06-09 19:36:00,78.7,57.4,29.87,SW,231,2.0,4.0,48,0.00,,SCT100,0.00,VWS V14.01,2013-06-10 00:36:00,
2013-06-09 19:42:00,78.5,57.2,29.87,WSW,248,0.0,3.0,48,0.00,,SCT100,0.00,VWS V14.01,2013-06-10 00:42:00,
2013-06-09 19:47:00,78.3,57.0,29.87,West,262,0.0,2.0,48,0.00,,SCT100,0.00,VWS V14.01,2013-06-10 00:47:00,
2013-06-09 19:52:00,78.1,57.4,29.87,WSW,250,0.0,2.0,49,0.00,,SCT100,0.00,VWS V14.01,2013-06-10 00:52:00,
2013-06-09 19:57:00,77.9,57.2,29.87,WSW,244,0.0,3.0,49,0.00,,SCT100,0.00,VWS V14.01,2013-06-10 00:57:00,
2013-06-09 20:02:00,77.9,57.2,29.87,WSW,247,0.0,1.0,49,0.00,,SCT100,0.00,VWS V14.01,2013-06-10 01:02:00,
2013-06-09 20:07:00,77.5,57.4,29.87,WSW,258,0.0,1.0,50,0.00,,SCT100,0.00,VWS V14.01,2013-06-10 01:07:00,
2013-06-09 20:12:00,77.4,57.9,29.87,West,268,0.0,1.0,51,0.00,,SCT100,0.00,VWS V14.01,2013-06-10 01:12:00,
2013-06-09 20:17:00,77.2,57.1,29.87,West,268,0.0,1.0,50,0.00,,SCT100,0.00,VWS V14.01,2013-06-10 01:17:00,
2013-06-09 20:22:00,77.0,57.5,29.86,West,268,0.0,1.0,51,0.00,,SCT100,0.00,VWS V14.01,2013-06-10 01:22:00,
2013-06-09 20:27:00,76.7,57.8,29.86,West,268,0.0,0.0,52,0.00,,SCT100,0.00,VWS V14.01,2013-06-10 01:27:00,
2013-06-09 20:32:00,76.0,58.2,29.86,West,266,0.0,0.0,54,0.00,,SCT100,0.00,VWS V14.01,2013-06-10 01:32:00,
2013-06-09 20:37:00,75.4,57.6,29.86,West,266,0.0,0.0,54,0.00,,SCT100,0.00,VWS V14.01,2013-06-10 01:37:00,
2013-06-09 20:43:00,74.6,57.9,29.86,West,266,0.0,0.0,56,0.00,,SCT100,0.00,VWS V14.01,2013-06-10 01:43:00,
2013-06-09 20:48:00,74.0,57.8,29.86,West,266,0.0,0.0,57,0.00,,SCT100,0.00,VWS V14.01,2013-06-10 01:48:00,
2013-06-09 20:53:00,73.7,58.0,29.86,West,266,0.0,0.0,58,0.00,,SCT100,0.00,VWS V14.01,2013-06-10 01:53:00,
2013-06-09 20:58:00,73.4,58.2,29.86,West,266,0.0,0.0,59,0.00,,SCT100,0.00,VWS V14.01,2013-06-10 01:58:00,
2013-06-09 21:03:00,73.1,57.9,29.86,West,266,0.0,0.0,59,0.00,,SKC,0.00,VWS V14.01,2013-06-10 02:03:00,
2013-06-09 21:08:00,72.7,58.5,29.86,West,266,0.0,0.0,61,0.00,,SKC,0.00,VWS V14.01,2013-06-10 02:08:00,
2013-06-09 21:13:00,72.4,58.7,29.86,West,266,0.0,0.0,62,0.00,,SKC,0.00,VWS V14.01,2013-06-10 02:13:00,
2013-06-09 21:18:00,71.7,58.5,29.86,West,266,0.0,0.0,63,0.00,,SKC,0.00,VWS V14.01,2013-06-10 02:18:00,
2013-06-09 21:23:00,71.4,58.6,29.87,West,266,0.0,0.0,64,0.00,,SKC,0.00,VWS V14.01,2013-06-10 02:23:00,
2013-06-09 21:28:00,71.2,58.4,29.87,West,266,0.0,0.0,64,0.00,,SKC,0.00,VWS V14.01,2013-06-10 02:28:00,
2013-06-09 21:33:00,71.1,58.3,29.87,West,266,0.0,0.0,64,0.00,,SKC,0.00,VWS V14.01,2013-06-10 02:33:00,
2013-06-09 21:38:00,71.1,58.3,29.87,West,266,0.0,0.0,64,0.00,,SKC,0.00,VWS V14.01,2013-06-10 02:38:00,
2013-06-09 21:43:00,70.9,58.1,29.87,West,266,0.0,0.0,64,0.00,,SKC,0.00,VWS V14.01,2013-06-10 02:43:00,
2013-06-09 21:48:00,70.7,58.4,29.87,West,266,0.0,0.0,65,0.00,,SKC,0.00,VWS V14.01,2013-06-10 02:48:00,
2013-06-09 21:53:00,70.4,58.5,29.88,West,266,0.0,0.0,66,0.00,,SKC,0.00,VWS V14.01,2013-06-10 02:53:00,
2013-06-09 21:58:00,70.0,58.5,29.88,West,266,0.0,0.0,67,0.00,,SKC,0.00,VWS V14.01,2013-06-10 02:58:00,
2013-06-09 22:03:00,69.7,58.7,29.88,West,266,0.0,0.0,68,0.00,,SKC,0.00,VWS V14.01,2013-06-10 03:03:00,
2013-06-09 22:08:00,69.4,59.2,29.88,West,266,0.0,0.0,70,0.00,,SKC,0.00,VWS V14.01,2013-06-10 03:08:00,
2013-06-09 22:13:00,68.9,59.1,29.88,West,266,0.0,0.0,71,0.00,,SKC,0.00,VWS V14.01,2013-06-10 03:13:00,
2013-06-09 22:18:00,68.6,59.2,29.88,West,266,0.0,0.0,72,0.00,,SKC,0.00,VWS V14.01,2013-06-10 03:18:00,
2013-06-09 22:23:00,68.3,59.3,29.88,West,266,0.0,0.0,73,0.00,,SKC,0.00,VWS V14.01,2013-06-10 03:23:00,
2013-06-09 22:28:00,68.1,59.1,29.89,West,266,0.0,0.0,73,0.00,,SKC,0.00,VWS V14.01,2013-06-10 03:28:00,
2013-06-09 22:33:00,67.9,59.3,29.89,West,266,0.0,0.0,74,0.00,,SKC,0.00,VWS V14.01,2013-06-10 03:33:00,
2013-06-09 22:38:00,67.8,58.8,29.89,West,266,0.0,0.0,73,0.00,,SKC,0.00,VWS V14.01,2013-06-10 03:38:00,
2013-06-09 22:43:00,67.4,58.5,29.89,West,266,0.0,0.0,73,0.00,,SKC,0.00,VWS V14.01,2013-06-10 03:43:00,
2013-06-09 22:49:00,67.3,58.4,29.89,West,266,0.0,0.0,73,0.00,,SKC,0.00,VWS V14.01,2013-06-10 03:49:00,
2013-06-09 22:54:00,67.1,58.2,29.89,West,266,0.0,0.0,73,0.00,,SKC,0.00,VWS V14.01,2013-06-10 03:54:00,
2013-06-09 22:59:00,67.0,58.5,29.89,West,266,0.0,0.0,74,0.00,,SKC,0.00,VWS V14.01,2013-06-10 03:59:00,
2013-06-09 23:01:00,67.0,58.1,29.89,West,266,0.0,0.0,73,0.00,,SKC,0.00,VWS V14.01,2013-06-10 04:01:00,
2013-06-09 23:02:00,67.0,58.5,29.89,West,266,0.0,0.0,74,0.00,,SKC,0.00,VWS V14.01,2013-06-10 04:02:00,
2013-06-09 23:03:00,66.7,58.2,29.89,West,266,0.0,0.0,74,0.00,,SKC,0.00,VWS V14.01,2013-06-10 04:03:00,
2013-06-09 23:08:00,66.6,58.4,29.89,West,266,0.0,0.0,75,0.00,,SKC,0.00,VWS V14.01,2013-06-10 04:08:00,
2013-06-09 23:13:00,66.4,58.6,29.89,West,266,0.0,0.0,76,0.00,,SKC,0.00,VWS V14.01,2013-06-10 04:13:00,
2013-06-09 23:18:00,66.1,58.3,29.89,West,266,0.0,0.0,76,0.00,,SKC,0.00,VWS V14.01,2013-06-10 04:18:00,
2013-06-09 23:23:00,65.8,58.4,29.89,West,266,0.0,0.0,77,0.00,,SKC,0.00,VWS V14.01,2013-06-10 04:23:00,
2013-06-09 23:28:00,65.7,58.3,29.89,West,266,0.0,0.0,77,0.00,,SKC,0.00,VWS V14.01,2013-06-10 04:28:00,
2013-06-09 23:33:00,65.5,58.1,29.89,West,266,0.0,0.0,77,0.00,,SKC,0.00,VWS V14.01,2013-06-10 04:33:00,
2013-06-09 23:38:00,65.5,58.5,29.90,West,266,0.0,0.0,78,0.00,,SKC,0.00,VWS V14.01,2013-06-10 04:38:00,
2013-06-09 23:43:00,65.3,57.9,29.89,West,266,0.0,0.0,77,0.00,,SKC,0.00,VWS V14.01,2013-06-10 04:43:00,
2013-06-09 23:48:00,65.3,58.3,29.90,West,266,0.0,0.0,78,0.00,,SKC,0.00,VWS V14.01,2013-06-10 04:48:00,
2013-06-09 23:53:00,65.3,58.6,29.90,West,266,0.0,0.0,79,0.00,,SKC,0.00,VWS V14.01,2013-06-10 04:53:00,
2013-06-09 23:58:00,65.2,58.5,29.89,West,266,0.0,0.0,79,0.00,,SKC,0.00,VWS V14.01,2013-06-10 04:58:00,